Home   Weather   Arrecife   Past weeks

Flag for Spain Past Weather in Arrecife, Canary Islands, Spain — Yesterday and Last 2 Weeks

Now
79 °F

Passing clouds.


Feels Like: 81 °F
Forecast: 73 / 82 °F
Wind: 21 mph from North

Location: Lanzarote / Aeropuerto

Current Time: Sep 27, 2016 at 6:23:14 PM

Latest Report: Sep 27, 2016 at 5:30 PM


Visibility: N/A

Pressure: 30.01 "Hg

Humidity: 65%

Dew Point: 66 °F

Location of ArrecifeLocation

Past Weather in Arrecife — Graph

°F

Arrecife Temperature Yesterday

Maximum temperature yesterday: 82 °F (at 2:30 PM)
Minimum temperature yesterday: 72 °F (at 12:00 AM)
Average temperature yesterday: 75 °F

High & Low Weather Summary for the Past Weeks

 TemperatureHumidityPressure
High84 °F (Sep 13, 1:00 PM)88% (Sep 13, 6:00 AM)30.21 "Hg (Sep 13, 6:00 AM)
Low66 °F (Sep 20, 8:00 AM)42% (Sep 14, 2:30 PM)29.98 "Hg (Sep 12, 7:00 PM)
Average75 °F67%30.09 "Hg
* Reported Sep 12 5:00 PM — Sep 27 5:00 PM, Arrecife, Weather by CustomWeather, © 2016

Note: Actual official high and low records may vary slightly from our data, if they occured in-between our weather recording intervals... More about our weather records

Advertising

Arrecife Weather History for the Previous 24 Hours

Scroll right to see more
 ConditionsComfort  
Time TempWeatherWind HumidityBarometerVisibility
5:00 PM
Tue, Sep 27
81 °FPassing clouds.23 mph62%30.01 "HgN/A
4:30 PM81 °FPassing clouds.23 mph62%30.01 "HgN/A
4:00 PM82 °FPassing clouds.23 mph58%30.04 "HgN/A
3:30 PM82 °FPassing clouds.21 mph58%30.04 "HgN/A
3:00 PM82 °FPassing clouds.21 mph58%30.04 "HgN/A
2:30 PM82 °FPassing clouds.17 mph55%30.04 "HgN/A
2:00 PM82 °FPassing clouds.16 mph55%30.04 "HgN/A
1:30 PM82 °FPassing clouds.18 mph55%30.07 "HgN/A
1:00 PM81 °FPassing clouds.20 mph58%30.07 "HgN/A
12:30 PM81 °FPassing clouds.17 mph58%30.07 "HgN/A
12:00 PM81 °FPassing clouds.17 mph58%30.07 "HgN/A
11:30 AM79 °FPassing clouds.16 mph61%30.09 "HgN/A
11:00 AM77 °FPassing clouds.17 mph65%30.09 "HgN/A
10:30 AM75 °FPassing clouds.18 mph69%30.09 "HgN/A
10:00 AM75 °FPassing clouds.20 mph74%30.07 "HgN/A
9:30 AM73 °FPassing clouds.17 mph78%30.07 "HgN/A
9:00 AM72 °FPassing clouds.17 mph83%30.07 "HgN/A
8:30 AM70 °FPassing clouds.14 mph88%30.04 "HgN/A
8:00 AM70 °FPassing clouds.13 mph88%30.04 "HgN/A
7:30 AM70 °FPassing clouds.16 mph83%30.04 "HgN/A
7:00 AM70 °FPassing clouds.16 mph83%30.04 "HgN/A
6:30 AM70 °FPassing clouds.16 mph83%30.04 "HgN/A
6:00 AM70 °FPassing clouds.16 mph83%30.04 "HgN/A
1:00 AM72 °FPassing clouds.14 mph78%30.09 "HgN/A
12:30 AM72 °FPassing clouds.16 mph78%30.09 "HgN/A
12:00 AM72 °FPassing clouds.13 mph78%30.09 "HgN/A
11:30 PM
Mon, Sep 26
72 °FPassing clouds.15 mph78%30.09 "HgN/A
11:00 PM72 °FPassing clouds.16 mph78%30.09 "HgN/A
10:30 PM72 °FPassing clouds.17 mph78%30.09 "HgN/A
10:00 PM72 °FPassing clouds.15 mph78%30.09 "HgN/A
9:30 PM72 °FPassing clouds.17 mph78%30.09 "HgN/A
9:00 PM72 °FPassing clouds.17 mph78%30.09 "HgN/A
8:30 PM73 °FPassing clouds.20 mph74%30.07 "HgN/A
8:00 PM73 °FPassing clouds.22 mph69%30.07 "HgN/A
7:30 PM73 °FPassing clouds.23 mph69%30.07 "HgN/A
7:00 PM75 °FPassing clouds.24 mph69%30.07 "HgN/A
6:30 PM75 °FPassing clouds.28 mph65%30.07 "HgN/A
6:00 PM77 °FPassing clouds.28 mph65%30.04 "HgN/A
Weather by CustomWeather, © 2016

See weather overviewHow to use our weather pages